Wiley Ford, WV

10:37 PM EST on February 05, 2016 (GMT -0500)
Greater Cumberland Regional

Weather History for KCBE - December, 2012

Change the Weather History Date:

Monday, December 24, 2012

  Actual Average (KMRB) Record (KMRB)
Temperature  
Mean Temperature 30 °F 32 °F  
Max Temperature 33 °F 41 °F 72 °F (2015)
Min Temperature 26 °F 24 °F -9 °F (1983)
Degree Days  
Heating Degree Days 36 33  
Month to date heating degree days 722  
Since 1 July heating degree days 1792  
Cooling Degree Days 0 0  
Month to date cooling degree days 0  
Year to date cooling degree days 895  
Moisture  
Dew Point 30 °F    
Average Humidity 96    
Maximum Humidity 100    
Minimum Humidity 81    
Precipitation  
Precipitation 0.00 in 0.08 in 1.44 in (1986)
Month to date precipitation 2.21  
Year to date precipitation 38.20  
Sea Level Pressure  
Sea Level Pressure 29.99 in    
Wind  
Wind Speed 1 mph (NNW)    
Max Wind Speed 5 mph    
Max Gust Speed -    
Visibility 6 miles    
Events      
T = Trace of Precipitation, MM = Missing Value Source: NWS Daily Summary

Daily Weather History Graph

Daily Weather History Graph

Search for Another Location

Airport or City:

Trip Planner

Search our weather history database for the weather conditions in past years. The results will help you decide how hot, cold, wet, or windy it might be!

Date:

Astronomy

Dec. 24, 2012 Rise Set
Actual Time 7:33 AM EST 4:56 PM EST
Civil Twilight 7:03 AM EST 5:26 PM EST
Nautical Twilight 6:29 AM EST 6:00 PM EST
Astronomical Twilight 5:56 AM EST 6:33 PM EST
Moon 2:22 PM EST (12/24) 4:10 AM EST (12/24)
Length of Visible Light 10h 23m
Length of Day
9h 22m
Waxing Gibbous, 88% of the Moon is Illuminated
Dec 24
Waxing Gibbous
Dec 28
Full
Jan 4
Last Quarter
Jan 11
New
Jan 18
First Quarter

Hourly Weather History & Observations

Time (EST) Temp. Windchill Dew Point Humidity Pressure Visibility Wind Dir Wind Speed Gust Speed Precip Events Conditions
12:04 AM 32.0 °F 28.7 °F 28.4 °F 87% 30.02 in 10.0 mi North 3.5 mph - N/A   Clear
12:25 AM 32.0 °F 28.7 °F 28.4 °F 87% 30.02 in 10.0 mi NNE 3.5 mph - N/A   Clear
12:47 AM 32.0 °F 27.5 °F 28.4 °F 87% 30.01 in 10.0 mi North 4.6 mph - N/A   Clear
1:08 AM 32.0 °F 27.5 °F 28.4 °F 87% 30.01 in 10.0 mi NNW 4.6 mph - N/A   Clear
1:29 AM 30.2 °F - 28.4 °F 93% 30.02 in 10.0 mi Calm Calm - N/A   Clear
1:50 AM 32.0 °F - 28.4 °F 87% 30.02 in 10.0 mi Calm Calm - N/A   Clear
2:12 AM 32.0 °F 27.5 °F 28.4 °F 87% 30.03 in 10.0 mi NW 4.6 mph - N/A   Clear
2:33 AM 32.0 °F - 28.4 °F 87% 30.03 in 10.0 mi Calm Calm - N/A   Clear
2:54 AM 32.0 °F - 28.4 °F 87% 30.04 in 10.0 mi Calm Calm - N/A   Clear
3:16 AM 30.2 °F 26.7 °F 28.4 °F 93% 30.04 in 10.0 mi North 3.5 mph - N/A   Clear
3:37 AM 30.2 °F - 28.4 °F 93% 30.04 in 10.0 mi Calm Calm - N/A   Clear
3:58 AM 28.4 °F 24.6 °F 28.4 °F 100% 30.04 in 10.0 mi NW 3.5 mph - N/A   Clear
4:20 AM 30.2 °F 26.7 °F 28.4 °F 93% 30.03 in 10.0 mi NW 3.5 mph - N/A   Clear
4:41 AM 30.2 °F 25.4 °F 28.4 °F 93% 30.04 in 10.0 mi North 4.6 mph - N/A   Clear
5:02 AM 26.6 °F - 26.6 °F 100% 30.05 in 10.0 mi Calm Calm - N/A   Clear
5:23 AM 28.4 °F - 28.4 °F 100% 30.04 in 10.0 mi Calm Calm - N/A   Clear
5:45 AM 28.4 °F - 26.6 °F 93% 30.05 in 10.0 mi Calm Calm - N/A   Clear
6:06 AM 28.4 °F - 26.6 °F 93% 30.06 in 10.0 mi Calm Calm - N/A   Clear
6:27 AM 26.6 °F 22.6 °F 26.6 °F 100% 30.07 in 7.0 mi SSE 3.5 mph - N/A   Clear
6:49 AM 26.6 °F - 26.6 °F 100% 30.06 in 10.0 mi Calm Calm - N/A   Clear
7:10 AM 28.4 °F - 28.4 °F 100% 30.05 in 10.0 mi Calm Calm - N/A   Clear
7:31 AM 28.4 °F - 28.4 °F 100% 30.05 in 10.0 mi Calm Calm - N/A   Clear
7:52 AM 28.4 °F - 26.6 °F 93% 30.04 in 10.0 mi Calm Calm - N/A   Clear
8:14 AM 28.4 °F - 28.4 °F 100% 30.05 in 10.0 mi Calm Calm - N/A   Clear
8:35 AM 28.4 °F - 28.4 °F 100% 30.05 in 10.0 mi Calm Calm - N/A   Clear
8:56 AM 28.4 °F - 28.4 °F 100% 30.04 in 10.0 mi Calm Calm - N/A   Clear
9:17 AM 30.2 °F 26.7 °F 28.4 °F 93% 30.06 in 10.0 mi South 3.5 mph - N/A   Clear
9:39 AM 28.4 °F - 28.4 °F 100% 30.07 in 10.0 mi Calm Calm - N/A   Clear
10:00 AM 30.2 °F - 30.2 °F 100% 30.06 in 10.0 mi Calm Calm - N/A   Clear
10:21 AM 30.2 °F - 30.2 °F 100% 30.07 in 10.0 mi Calm Calm - N/A   Clear
10:42 AM 32.0 °F - 30.2 °F 93% 30.06 in 10.0 mi Calm Calm - N/A   Clear
11:04 AM 32.0 °F - 30.2 °F 93% 30.05 in 10.0 mi Calm Calm - N/A   Mostly Cloudy
11:25 AM 32.0 °F - 30.2 °F 93% 30.02 in 10.0 mi Calm Calm - N/A   Mostly Cloudy
11:46 AM 32.0 °F - 30.2 °F 93% 30.02 in 10.0 mi Calm Calm - N/A   Overcast
12:08 PM 33.8 °F - 30.2 °F 87% 30.01 in 10.0 mi Calm Calm - N/A   Overcast
12:29 PM 33.8 °F - 30.2 °F 87% 30.00 in 10.0 mi Calm Calm - N/A   Overcast
12:50 PM 33.8 °F - 28.4 °F 81% 29.99 in 10.0 mi Calm Calm - N/A   Overcast
1:11 PM 33.8 °F 29.6 °F 30.2 °F 87% 29.99 in 4.0 mi SSE 4.6 mph - N/A   Overcast
1:33 PM 32.0 °F - 32.0 °F 100% 29.98 in 0.5 mi Calm Calm - N/A   Overcast
1:54 PM 32.0 °F - 32.0 °F 100% 29.97 in 1.0 mi Calm Calm - N/A   Overcast
2:15 PM 32.0 °F - 32.0 °F 100% 29.96 in 0.5 mi Calm Calm - N/A   Overcast
2:36 PM 32.0 °F - 32.0 °F 100% 29.95 in 0.5 mi Calm Calm - N/A   Overcast
2:58 PM 32.0 °F - 32.0 °F 100% 29.94 in 0.8 mi Calm Calm - N/A   Overcast
3:19 PM 32.0 °F - 32.0 °F 100% 29.94 in 0.5 mi Calm Calm - N/A   Overcast
3:40 PM 32.0 °F - 32.0 °F 100% 29.94 in 0.8 mi Calm Calm - N/A   Overcast
4:01 PM 32.0 °F 28.7 °F 32.0 °F 100% 29.92 in 0.8 mi NW 3.5 mph - N/A   Overcast
4:23 PM 32.0 °F - 32.0 °F 100% 29.93 in 1.0 mi Calm Calm - N/A   Overcast
4:44 PM 32.0 °F - 32.0 °F 100% 29.93 in 1.0 mi Calm Calm - N/A   Overcast
5:05 PM 32.0 °F - 32.0 °F 100% 29.92 in 1.8 mi Calm Calm - N/A   Overcast
5:26 PM 32.0 °F - 32.0 °F 100% 29.93 in 2.5 mi Calm Calm - N/A   Overcast
5:48 PM 32.0 °F - 32.0 °F 100% 29.92 in 1.8 mi Calm Calm - N/A   Overcast
6:09 PM 32.0 °F - 32.0 °F 100% 29.92 in 1.8 mi Calm Calm - N/A   Overcast
6:30 PM 32.0 °F - 32.0 °F 100% 29.92 in 2.0 mi Calm Calm - N/A   Overcast
6:51 PM 32.0 °F - 32.0 °F 100% 29.92 in 3.0 mi Calm Calm - N/A   Overcast
7:13 PM 32.0 °F - 32.0 °F 100% 29.92 in 2.0 mi Calm Calm - N/A   Overcast
7:34 PM 32.0 °F - 32.0 °F 100% 29.92 in 2.5 mi Calm Calm - N/A   Overcast
7:55 PM 32.0 °F - 32.0 °F 100% 29.92 in 2.0 mi Calm Calm - N/A   Overcast
8:17 PM 32.0 °F - 32.0 °F 100% 29.92 in 1.8 mi Calm Calm - N/A   Overcast
8:38 PM 32.0 °F - 32.0 °F 100% 29.92 in 1.8 mi Calm Calm - N/A   Overcast
8:59 PM 32.0 °F - 32.0 °F 100% 29.92 in 1.5 mi Calm Calm - N/A   Overcast
9:20 PM 32.0 °F - 32.0 °F 100% 29.92 in 1.2 mi Calm Calm - N/A   Overcast
9:42 PM 32.0 °F - 32.0 °F 100% 29.92 in 1.2 mi Calm Calm - N/A   Overcast
10:03 PM 32.0 °F - 32.0 °F 100% 29.92 in 1.2 mi Calm Calm - N/A   Overcast
10:24 PM 32.0 °F - 32.0 °F 100% 29.92 in 1.2 mi Calm Calm - N/A   Overcast
10:45 PM 32.0 °F - 32.0 °F 100% 29.92 in 1.0 mi Calm Calm - N/A   Overcast
11:07 PM 32.0 °F - 32.0 °F 100% 29.92 in 1.2 mi Calm Calm - N/A   Overcast
11:28 PM 32.0 °F - 32.0 °F 100% 29.92 in 1.5 mi Calm Calm - N/A   Overcast
11:49 PM 32.0 °F - 32.0 °F 100% 29.93 in 0.8 mi Calm Calm - N/A   Overcast